AZQ YBAF-YBAF

Flight info

Callsign AZQ
Flight time 0h 7m
Altitude 100
Route
Aircraft C172/L-G/C

Departure

Time 2026-05-01 13:14
Airport Brisbane Archerfield Airport (YBAF)

Arrival

Time 2026-05-01 13:22
Airport Brisbane Archerfield Airport (YBAF)
Time Latitude Longitude Altitude Speed Heading
2026-05-01 13:13 -27.56999 152.99605 107 ft 74 kts 113°
2026-05-01 13:13 -27.57139 153.00088 44 ft 53 kts 108°
2026-05-01 13:14 -27.57274 153.00571 89 ft 76 kts 111°
2026-05-01 13:14 -27.57442 153.01156 297 ft 77 kts 113°
2026-05-01 13:14 -27.57594 153.01703 529 ft 72 kts 107°
2026-05-01 13:14 -27.57457 153.02227 707 ft 78 kts 43°
2026-05-01 13:15 -27.56916 153.02313 902 ft 79 kts
2026-05-01 13:15 -27.56328 153.02196 895 ft 104 kts 329°
2026-05-01 13:15 -27.55941 153.01521 998 ft 104 kts 285°
2026-05-01 13:15 -27.55719 153.00686 994 ft 114 kts 284°
2026-05-01 13:16 -27.55444 152.99836 1034 ft 117 kts 290°
2026-05-01 13:16 -27.55276 152.99022 927 ft 100 kts 259°
2026-05-01 13:16 -27.55631 152.98455 740 ft 82 kts 198°
2026-05-01 13:17 -27.56848 152.99290 166 ft 73 kts 123°
2026-05-01 13:17 -27.57046 152.99778 52 ft 61 kts 113°
2026-05-01 13:18 -27.57268 153.00553 62 ft 62 kts 111°
2026-05-01 13:18 -27.57407 153.01045 141 ft 70 kts 111°
2026-05-01 13:18 -27.57575 153.01561 352 ft 68 kts 115°
2026-05-01 13:18 -27.57723 153.02072 522 ft 67 kts 110°
2026-05-01 13:19 -27.57625 153.02596 671 ft 74 kts 52°
2026-05-01 13:19 -27.57144 153.02793 858 ft 77 kts 12°
2026-05-01 13:19 -27.56072 153.02224 951 ft 112 kts 297°
2026-05-01 13:20 -27.55846 153.01372 962 ft 113 kts 283°
2026-05-01 13:20 -27.55614 153.00516 993 ft 115 kts 288°
2026-05-01 13:20 -27.55336 152.99679 1050 ft 111 kts 289°
2026-05-01 13:21 -27.55426 152.98172 929 ft 92 kts 228°
2026-05-01 13:21 -27.55925 152.97782 774 ft 86 kts 193°
2026-05-01 13:21 -27.56406 152.97975 672 ft 76 kts 137°
2026-05-01 13:21 -27.56692 152.98477 482 ft 77 kts 105°
2026-05-01 13:22 -27.56848 152.99053 306 ft 77 kts 112°
2026-05-01 13:22 -27.57003 152.99613 104 ft 73 kts 113°
2026-05-01 13:22 -27.57136 153.00075 41 ft 49 kts 107°
2026-05-01 13:22 -27.57270 153.00547 85 ft 75 kts 113°
2026-05-01 13:23 -27.57443 153.01138 266 ft 81 kts 112°
2026-05-01 13:23 -27.57615 153.01727 512 ft 75 kts 105°
2026-05-01 13:23 -27.57536 153.02310 718 ft 77 kts 70°
2026-05-01 13:23 -27.57108 153.02661 925 ft 82 kts 12°
2026-05-01 13:24 -27.56501 153.02410 937 ft 106 kts 314°
2026-05-01 13:24 -27.56161 153.01660 919 ft 111 kts 289°
2026-05-01 13:24 -27.55894 153.00829 912 ft 115 kts 287°
2026-05-01 13:25 -27.55378 152.99195 953 ft 99 kts 288°
2026-05-01 13:25 -27.55208 152.98485 916 ft 93 kts 267°
2026-05-01 13:25 -27.55379 152.97831 813 ft 87 kts 229°
2026-05-01 13:25 -27.55877 152.97560 725 ft 78 kts 172°
2026-05-01 13:26 -27.56355 152.97705 661 ft 66 kts 139°
2026-05-01 13:26 -27.56585 152.98177 476 ft 71 kts 115°
2026-05-01 13:26 -27.56748 152.98733 347 ft 78 kts 114°
2026-05-01 13:26 -27.56912 152.99301 201 ft 73 kts 113°
2026-05-01 13:27 -27.57061 152.99818 48 ft 63 kts 112°
2026-05-01 13:27 -27.57171 153.00199 39 ft 51 kts 106°
2026-05-01 13:27 -27.57501 153.01268 305 ft 79 kts 115°
2026-05-01 13:28 -27.57615 153.02407 761 ft 74 kts 65°
2026-05-01 13:28 -27.57228 153.02807 966 ft 78 kts 31°
2026-05-01 13:29 -27.55963 153.02369 904 ft 116 kts 297°
2026-05-01 13:29 -27.55558 153.00602 905 ft 117 kts 284°
2026-05-01 13:30 -27.56055 152.98168 633 ft 84 kts 173°
2026-05-01 13:31 -27.56853 152.99071 304 ft 89 kts 111°
2026-05-01 13:31 -27.57335 153.00761 110 ft 81 kts 114°
2026-05-01 13:32 -27.57652 153.02035 529 ft 83 kts 105°
2026-05-01 13:33 -27.56326 153.02538 903 ft 108 kts 308°
2026-05-01 13:33 -27.55876 153.00918 883 ft 110 kts 282°
2026-05-01 13:34 -27.55434 152.99276 951 ft 104 kts 285°
2026-05-01 13:34 -27.55848 152.98082 825 ft 88 kts 187°
2026-05-01 13:35 -27.56756 152.98746 493 ft 76 kts 104°
2026-05-01 13:35 -27.56919 152.99318 228 ft 81 kts 111°
2026-05-01 13:35 -27.57206 153.00327 44 ft 66 kts 108°
2026-05-01 13:36 -27.57374 153.00894 126 ft 85 kts 112°
2026-05-01 13:36 -27.57574 153.01533 367 ft 83 kts 112°
2026-05-01 13:36 -27.57391 153.02635 849 ft 78 kts 39°
2026-05-01 13:37 -27.56829 153.02834 958 ft 100 kts
2026-05-01 13:37 -27.56200 153.02483 995 ft 111 kts 305°
2026-05-01 13:37 -27.55924 153.01655 1012 ft 116 kts 284°
2026-05-01 13:37 -27.55705 153.00780 1058 ft 116 kts 284°
2026-05-01 13:38 -27.55260 152.99144 971 ft 100 kts 270°
2026-05-01 13:38 -27.55476 152.98509 853 ft 80 kts 213°
2026-05-01 13:38 -27.55984 152.98408 690 ft 75 kts 174°
2026-05-01 13:39 -27.56499 152.98489 557 ft 78 kts 152°
2026-05-01 13:39 -27.56804 152.98987 349 ft 78 kts 116°
2026-05-01 13:39 -27.56975 152.99512 151 ft 69 kts 113°
2026-05-01 13:39 -27.57111 152.99993 41 ft 53 kts 112°
2026-05-01 13:40 -27.57200 153.00303 39 ft 33 kts 107°
2026-05-01 13:40 -27.57228 153.00450 41 ft 8 kts 39°
2026-05-01 13:40 -27.57197 153.00465 43 ft 0 kts 19°
2026-05-01 13:41 -27.57195 153.00466 43 ft 5 kts 18°
2026-05-01 13:41 -27.57167 153.00490 44 ft 5 kts 96°
2026-05-01 13:41 -27.57186 153.00562 42 ft 16 kts 104°
2026-05-01 13:42 -27.57228 153.00706 39 ft 15 kts 109°
2026-05-01 13:42 -27.57272 153.00863 40 ft 26 kts 109°
2026-05-01 13:42 -27.57323 153.01045 36 ft 22 kts 108°
2026-05-01 13:42 -27.57299 153.01127 39 ft 9 kts 11°
2026-05-01 13:43 -27.57261 153.01136 42 ft 3 kts 14°
2026-05-01 13:43 -27.57218 153.01145 44 ft 14 kts 10°
2026-05-01 13:43 -27.57115 153.01177 49 ft 13 kts
2026-05-01 13:43 -27.57067 153.01225 49 ft 9 kts 82°
2026-05-01 13:44 -27.57049 153.01289 48 ft 12 kts 20°
2026-05-01 13:44 -27.57035 153.01259 49 ft 0 kts 188°